Flag for Saudi Arabia

Past Weather in Medina, Saudi Arabia — Yesterday and Last 2 Weeks

Now
97 °F

Clear.


Feels Like: 92 °F
Forecast: 107 / 79 °F
Wind: 6 mph from North

Location: Madinah
Current Time: Sep 26, 2020 at 10:11:07 pm
Latest Report: Sep 26, 2020 at 9:00 pm
Visibility: 10 mi
Pressure29.83 "Hg(27.90 "Hg at 606m altitude)
Humidity: 7%
Dew Point: 25 °F
Location of MedinaLocation

Past Weather in Medina — Graph

°F

Medina Temperature Yesterday

Maximum temperature yesterday: 106 °F (at 2:00 pm)
Minimum temperature yesterday: 81 °F (at 6:00 am)
Average temperature yesterday: 95 °F

High & Low Weather Summary for the Past Weeks

 TemperatureHumidityPressure
High111 °F (Sep 13, 4:00 pm)29% (Sep 12, 6:00 am)29.98 "Hg (Sep 12, 6:00 am)
Low81 °F (Sep 20, 7:00 am)3% (Sep 14, 1:00 am)29.80 "Hg (Sep 19, 4:00 pm)
Average97 °F8%29.90 "Hg
* Reported Sep 11 9:00 pm — Sep 26 9:00 pm, Medina. Weather by CustomWeather, © 2020

Note: Actual official high and low records may vary slightly from our data, if they occured in-between our weather recording intervals... More about our weather records

Medina Weather History for the Previous 24 Hours

Scroll right to see more
 ConditionsComfort  
Time TempWeatherWind HumidityBarometerVisibility
9:00 pm
Sat, Sep 26
97 °FClear.6 mph7%29.83 "Hg10 mi
8:00 pm99 °FClear.5 mph7%29.83 "Hg10 mi
7:00 pm104 °FClear.10 mph7%29.80 "Hg10 mi
6:00 pm106 °FSunny.9 mph6%29.80 "Hg10 mi
5:00 pm106 °FSunny.8 mph6%29.80 "Hg10 mi
4:00 pm106 °FSunny.12 mph6%29.80 "Hg10 mi
3:00 pm108 °FSunny.6 mph5%29.80 "Hg10 mi
2:00 pm106 °FSunny.8 mph5%29.83 "Hg10 mi
1:00 pm106 °FSunny.8 mph5%29.83 "Hg10 mi
12:00 pm104 °FSunny.8 mph6%29.89 "Hg10 mi
11:00 am100 °FSunny.No wind6%29.89 "Hg10 mi
10:00 am95 °FSunny.No wind7%29.92 "Hg10 mi
9:00 am91 °FSunny.No wind8%29.92 "Hg10 mi
8:00 am86 °FSunny.No wind9%29.89 "Hg10 mi
7:00 am82 °FSunny.No wind10%29.89 "Hg10 mi
6:00 am82 °FClear.8 mph9%29.86 "Hg10 mi
5:00 am84 °FClear.6 mph10%29.86 "Hg10 mi
4:00 am84 °FClear.No wind9%29.86 "Hg10 mi
3:00 am88 °FClear.13 mph9%29.86 "Hg10 mi
2:00 am91 °FClear.No wind8%29.86 "Hg10 mi
1:00 am91 °FClear.3 mph8%29.86 "Hg10 mi
12:00 am90 °FClear.5 mph7%29.86 "Hg10 mi
11:00 pm
Fri, Sep 25
93 °FClear.No wind7%29.86 "Hg10 mi
10:00 pm93 °FClear.7 mph7%29.86 "Hg10 mi
Weather by CustomWeather, © 2020

See weather overview